Date String (YYYY-MM-DD hh:mm:ss) UTC,Instrument flags,absolute air pressure of the measurement (hPa),sample flow rate (lpm),inlet stack bypass flow (lpm),air temperature of the measurement (°C),ambient temperature measured by the external sensor (°C),aerosol sample conditioner tube jacket temperature (°C),OPC LED temperature (°C),internal box temperature (°C),relative humidity of the measurement (%),span deviation,mass concentration of particles derived from Lorenz-Mie calculation of OPC scattering (μg/m³),mass concentration of particles derived from Lorenz-Mie calculation of OPC scattering (μg/m³),mass concentration of particles derived from Lorenz-Mie calculation of OPC scattering (μg/m³)
DateTimeUTC,F1_M11,P_M11,Q1_M11,Q2_M11,T1_M11,T2_M11,T3_M11,T4_M11,T5_M11,U1_M11,ZSPAN_M11,X0_M11,X2_M11,X1_M11
2023-06-22 01:00:00,SystemResetWarning,0830.3,5.00,000.00,032.7,025.7,000.0,040.1,032.3,34.2,0003.8,0052.21,0013.33,0007.81
2023-06-22 01:01:00,SystemResetWarning,0830.2,5.01,000.00,032.7,025.6,000.0,040.1,032.0,34.4,0003.7,0052.59,0013.29,0007.81
2023-06-22 01:02:00,SystemResetWarning,0830.2,5.00,000.00,032.4,025.9,000.0,040.2,031.8,34.9,0003.5,0052.70,0013.29,0007.80
2023-06-22 01:03:00,SystemResetWarning,0830.1,4.98,000.00,032.4,026.4,000.0,040.2,031.8,35.1,0003.4,0054.61,0013.26,0007.80
2023-06-22 01:04:00,SystemResetWarning,0830.1,5.03,000.00,032.5,026.8,000.0,040.2,031.9,35.0,0003.2,0056.95,0013.34,0007.82
2023-06-22 01:05:00,SystemResetWarning,0830.2,4.96,000.00,032.6,027.2,000.0,040.2,032.1,34.8,0003.2,0058.30,0013.44,0007.84
2023-06-22 01:06:00,SystemResetWarning,0830.2,5.02,000.00,032.7,027.6,000.0,040.2,032.1,34.5,0003.4,0060.92,0013.44,0007.85
2023-06-22 01:07:00,SystemResetWarning,0830.2,5.01,000.00,032.8,027.9,000.0,040.3,032.2,34.4,0003.2,0063.37,0013.51,0007.87
2023-06-22 01:08:00,SystemResetWarning,0830.3,5.00,000.00,032.8,028.1,000.0,040.3,032.2,34.4,0002.9,0065.96,0013.67,0007.90
2023-06-22 01:09:00,SystemResetWarning,0830.2,5.00,000.00,032.7,028.3,000.0,040.4,032.2,34.5,0002.4,0069.01,0013.72,0007.90
2023-06-22 01:10:00,SystemResetWarning,0830.2,4.99,000.00,032.8,027.3,000.0,040.4,032.2,34.6,0002.4,0070.12,0013.84,0007.92
2023-06-22 01:11:00,SystemResetWarning,0830.2,5.00,000.00,032.8,025.4,000.0,040.3,032.1,34.4,0002.5,0069.60,0014.06,0007.94
2023-06-22 01:12:00,SystemResetWarning,0830.2,5.01,000.00,032.7,024.7,000.0,040.3,032.1,34.5,0002.5,0069.17,0014.20,0007.95
2023-06-22 01:13:00,SystemResetWarning,0830.2,5.00,000.00,032.5,024.9,000.0,040.3,031.8,34.8,0002.7,0068.78,0014.23,0007.96
2023-06-22 01:14:00,SystemResetWarning,0830.3,5.00,000.00,032.4,025.4,000.0,040.3,031.7,35.5,0002.7,0067.87,0014.31,0007.98
2023-06-22 01:15:00,SystemResetWarning,0830.3,5.02,000.00,032.5,025.9,000.0,040.3,031.9,35.4,0002.9,0067.05,0014.21,0007.99
2023-06-22 01:16:00,SystemResetWarning,0830.5,5.00,000.00,032.7,026.4,000.0,040.3,032.0,35.1,0002.7,0066.49,0014.26,0008.01
2023-06-22 01:17:00,SystemResetWarning,0830.6,4.98,000.00,033.0,026.9,000.0,040.3,032.1,34.5,0002.2,0064.01,0014.24,0008.01
2023-06-22 01:18:00,SystemResetWarning,0830.5,5.00,000.00,033.1,027.3,000.0,040.3,032.1,34.1,0002.4,0062.78,0014.21,0007.99
2023-06-22 01:19:00,SystemResetWarning,0830.7,5.01,000.00,033.2,027.6,000.0,040.4,032.2,33.7,0002.5,0060.88,0014.08,0007.96
2023-06-22 01:20:00,SystemResetWarning,0830.6,4.98,000.00,033.2,027.9,000.0,040.5,032.2,33.5,0002.8,0060.30,0013.98,0007.92
2023-06-22 01:21:00,SystemResetWarning,0830.6,5.00,000.00,033.2,028.1,000.0,040.5,032.3,33.7,0002.8,0059.16,0013.87,0007.89
2023-06-22 01:22:00,SystemResetWarning,0830.5,5.01,000.00,033.2,028.3,000.0,040.6,032.3,33.7,0002.7,0057.64,0013.68,0007.85
2023-06-22 01:23:00,SystemResetWarning,0830.4,5.00,000.00,033.3,027.9,000.0,040.7,032.4,33.8,0003.0,0057.03,0013.41,0007.81
2023-06-22 01:24:00,SystemResetWarning,0830.5,4.98,000.00,033.3,026.1,000.0,040.6,032.1,33.8,0003.0,0057.44,0013.23,0007.77
2023-06-22 01:25:00,SystemResetWarning,0830.4,5.01,000.00,033.2,024.9,000.0,040.6,032.1,34.0,0003.0,0057.30,0013.16,0007.72
2023-06-22 01:26:00,SystemResetWarning,0830.5,5.01,000.00,033.1,024.8,000.0,040.6,031.9,34.0,0002.7,0056.06,0013.15,0007.67
2023-06-22 01:27:00,SystemResetWarning,0830.5,5.00,000.00,032.9,025.2,000.0,040.6,031.6,33.9,0003.1,0056.73,0013.02,0007.62
2023-06-22 01:28:00,SystemResetWarning,0830.6,5.00,000.00,032.7,025.7,000.0,040.6,031.7,33.7,0003.3,0059.33,0012.91,0007.60
2023-06-22 01:29:00,SystemResetWarning,0830.8,5.00,000.00,032.6,026.2,000.0,040.6,031.8,33.7,0003.1,0058.62,0012.73,0007.57
2023-06-22 01:30:00,SystemResetWarning,0830.9,5.00,000.00,032.5,026.7,000.0,040.5,031.8,33.7,0003.1,0059.00,0012.67,0007.59
2023-06-22 01:31:00,SystemResetWarning,0831.1,4.99,000.00,032.4,027.1,000.0,040.5,031.9,33.5,0003.0,0056.85,0012.56,0007.60
2023-06-22 01:32:00,SystemResetWarning,0831.1,5.00,000.00,032.4,027.5,000.0,040.5,032.0,33.4,0003.2,0055.54,0012.44,0007.59
2023-06-22 01:33:00,SystemResetWarning,0831.2,5.00,000.00,032.3,027.7,000.0,040.5,032.0,33.3,0003.3,0055.54,0012.34,0007.59
2023-06-22 01:34:00,SystemResetWarning,0831.2,5.00,000.00,032.3,028.0,000.0,040.4,032.0,33.4,0003.2,0057.02,0012.25,0007.57
2023-06-22 01:35:00,SystemResetWarning,0831.3,5.00,000.00,032.3,028.2,000.0,040.4,032.1,33.3,0003.2,0057.43,0012.25,0007.55
2023-06-22 01:36:00,SystemResetWarning,0831.2,5.00,000.00,032.2,028.4,000.0,040.4,032.1,33.1,0003.1,0058.69,0012.21,0007.52
2023-06-22 01:37:00,SystemResetWarning,0831.3,5.00,000.00,032.2,028.5,000.0,040.4,032.2,32.6,0003.1,0058.67,0012.06,0007.48
2023-06-22 01:38:00,SystemResetWarning,0831.3,5.00,000.00,032.2,028.5,000.0,040.4,032.3,32.8,0002.9,0056.66,0011.96,0007.44
2023-06-22 01:39:00,SystemResetWarning,0831.3,4.99,000.00,032.2,027.0,000.0,040.3,032.3,32.9,0002.7,0053.68,0011.86,0007.41
2023-06-22 01:40:00,SystemResetWarning,0831.2,5.00,000.00,032.2,025.1,000.0,040.2,032.1,32.4,0002.6,0053.58,0011.85,0007.36
2023-06-22 01:41:00,SystemResetWarning,0831.3,5.00,000.00,032.1,024.6,000.0,040.1,032.1,31.9,0002.3,0055.37,0011.91,0007.32
2023-06-22 01:42:00,SystemResetWarning,0831.3,5.01,000.00,031.9,024.8,000.0,040.1,031.6,31.8,0002.2,0055.89,0011.95,0007.29
2023-06-22 01:43:00,SystemResetWarning,0831.3,5.01,000.00,031.7,025.3,000.0,040.0,031.6,32.6,0001.9,0056.91,0012.05,0007.27
2023-06-22 01:44:00,SystemResetWarning,0831.3,5.00,000.00,031.6,025.9,000.0,040.0,031.6,33.1,0002.2,0056.80,0012.07,0007.27
2023-06-22 01:45:00,SystemResetWarning,0831.3,5.00,000.00,031.5,026.4,000.0,039.9,031.7,33.1,0002.3,0055.72,0012.25,0007.27
2023-06-22 01:46:00,SystemResetWarning,0831.3,4.99,000.00,031.4,026.8,000.0,039.9,031.7,33.2,0002.4,0055.95,0012.42,0007.28
2023-06-22 01:47:00,SystemResetWarning,0831.3,5.00,000.00,031.4,027.2,000.0,039.8,031.8,33.2,0002.6,0056.60,0012.49,0007.29
2023-06-22 01:48:00,SystemResetWarning,0831.3,5.00,000.00,031.4,027.5,000.0,039.8,031.8,33.4,0002.8,0056.94,0012.55,0007.31
2023-06-22 01:49:00,SystemResetWarning,0831.3,5.00,000.00,031.3,027.7,000.0,039.8,031.8,33.5,0002.5,0056.91,0012.60,0007.33
2023-06-22 01:50:00,SystemResetWarning,0831.3,5.00,000.00,031.3,027.9,000.0,039.7,031.8,33.4,0002.7,0057.15,0012.68,0007.33
2023-06-22 01:51:00,SystemResetWarning,0831.3,5.00,000.00,031.3,028.1,000.0,039.7,031.9,33.4,0002.9,0056.79,0012.87,0007.36
2023-06-22 01:52:00,SystemResetWarning,0831.3,5.00,000.00,031.3,028.3,000.0,039.7,031.9,33.4,0002.7,0054.49,0012.94,0007.38
2023-06-22 01:53:00,SystemResetWarning,0831.3,5.00,000.00,031.3,028.4,000.0,039.7,031.9,33.3,0002.7,0053.74,0012.92,0007.39
2023-06-22 01:54:00,SystemResetWarning,0831.3,4.99,000.00,031.2,028.5,000.0,039.7,031.9,33.1,0002.7,0052.22,0012.92,0007.41
2023-06-22 01:55:00,SystemResetWarning,0831.3,4.99,000.00,031.2,028.6,000.0,039.6,032.0,33.0,0002.5,0051.13,0012.88,0007.41
2023-06-22 01:56:00,SystemResetWarning,0831.3,4.99,000.00,031.2,028.2,000.0,039.6,032.0,33.1,0002.0,0050.09,0012.77,0007.41
2023-06-22 01:57:00,SystemResetWarning,0831.4,5.00,000.00,031.2,026.3,000.0,039.5,032.0,33.5,0002.0,0046.85,0012.64,0007.43
2023-06-22 01:58:00,SystemResetWarning,0831.3,5.00,000.00,031.2,025.4,000.0,039.5,032.0,33.8,0001.8,0043.33,0012.49,0007.43
2023-06-22 01:59:00,SystemResetWarning,0831.3,5.01,000.00,031.1,025.5,000.0,039.4,031.6,34.1,0001.8,0042.42,0012.52,0007.42
